Flag for U.S.A. Weather past 2 weeks in Youngstown, Ohio, U.S.A.

Now
16 °F

Scattered clouds.


Feels Like: 7 °F
Forecast: -5 / 22 °F
Wind: 6 mph from Southeast

Location: Youngstown-Warren Regional Airport

Current Time: Feb 28, 2015 at 12:31:18 PM

Latest Report: Feb 28, 2015 at 11:51 AM


Visibility: 10 mi

Pressure: 30.81 "Hg

Humidity: 43%

Dew point: -3 °F

Location of YoungstownLocation

Historic Weather in Youngstown — Graph

°F

Youngstown temperature yesterday

Maximum temperature yesterday: 15 °F (at 2:51 PM)
Minimum temperature yesterday: -3 °F (at 6:51 AM)
Average temperature yesterday: 6 °F

Past Weeks' High & Low Weather Summary

 TemperatureHumidityPressure
High30 °F (Feb 22, 2:51 PM)96% (Feb 22, 5:51 AM)30.84 "Hg (Feb 22, 5:51 AM)
Low-14 °F (Feb 20, 7:51 AM)31% (Feb 24, 3:51 PM)29.48 "Hg (Feb 14, 12:58 PM)
Average9 °F68%30.17 "Hg
* Reported Feb 13 10:51 AM — Feb 28 10:51 AM, Youngstown, Weather by CustomWeather, © 2015

Note: Actual official high and low records may vary slightly from our data, if they occured in-between our weather recording intervals... More about our weather records

Advertising

Youngstown weather history for previous 24 hours

 ConditionsComfort  
Time TempWeatherWind HumidityBarometerVisibility
10:51 AM
Sat, Feb 28
13 °FPartly sunny.7 mph56%30.83 "Hg10 mi
9:51 AM9 °FBroken clouds.5 mph70%30.84 "Hg10 mi
8:51 AM4 °FBroken clouds.5 mph76%30.83 "Hg10 mi
7:51 AM-8 °FScattered clouds.5 mph86%30.81 "Hg7 mi
6:51 AM-7 °FPassing clouds.3 mph83%30.80 "Hg10 mi
5:51 AM-4 °FPassing clouds.5 mph79%30.80 "Hg10 mi
4:51 AM-3 °FPassing clouds.No wind82%30.77 "Hg10 mi
3:51 AM-2 °FPassing clouds.3 mph83%30.75 "Hg10 mi
2:51 AM1 °FPassing clouds.3 mph75%30.73 "Hg10 mi
1:51 AM-1 °FPassing clouds.No wind79%30.73 "Hg10 mi
12:51 AM-1 °FPassing clouds.3 mph82%30.73 "Hg10 mi
11:51 PM
Fri, Feb 27
1 °FPassing clouds.No wind79%30.72 "Hg10 mi
10:51 PM2 °FPassing clouds.No wind72%30.73 "Hg10 mi
9:51 PM3 °FPassing clouds.No wind69%30.71 "Hg10 mi
8:51 PM6 °FClear.No wind63%30.68 "Hg10 mi
7:51 PM8 °FPassing clouds.No wind57%30.66 "Hg10 mi
6:51 PM11 °FPassing clouds.No wind53%30.64 "Hg10 mi
5:51 PM13 °FScattered clouds.7 mph49%30.63 "Hg10 mi
4:51 PM13 °FPartly sunny.9 mph51%30.62 "Hg10 mi
3:51 PM13 °FPartly sunny.6 mph51%30.60 "Hg10 mi
2:51 PM15 °FPartly sunny.5 mph49%30.60 "Hg10 mi
1:51 PM14 °FPartly sunny.8 mph51%30.59 "Hg10 mi
12:51 PM10 °FScattered clouds.5 mph53%30.59 "Hg10 mi
Weather by CustomWeather, © 2015

See weather overviewHow to use our weather pages